La Porte, IN

11:37 PM CST on February 09, 2016 (GMT -0600)
La Porte Municipal

Weather History for KPPO - November, 2013

Change the Weather History Date:

Tuesday, November 12, 2013

  Actual Average (KVPZ) Record (KVPZ)
Temperature  
Mean Temperature 21 °F 43 °F  
Max Temperature 30 °F 51 °F 69 °F (2010)
Min Temperature 12 °F 34 °F 20 °F (2013)
Degree Days  
Heating Degree Days 44 22  
Month to date heating degree days 241  
Since 1 July heating degree days 771  
Cooling Degree Days 0 0  
Month to date cooling degree days 0  
Year to date cooling degree days 713  
Moisture  
Dew Point 20 °F    
Average Humidity 84    
Maximum Humidity 97    
Minimum Humidity 57    
Precipitation  
Precipitation 0.18 in 0.12 in 0.18 in (2007)
Month to date precipitation 1.48  
Year to date precipitation 33.48  
Sea Level Pressure  
Sea Level Pressure 30.58 in    
Wind  
Wind Speed 5 mph (WNW)    
Max Wind Speed 15 mph    
Max Gust Speed 21 mph    
Visibility 6 miles    
Events Snow    
T = Trace of Precipitation, MM = Missing Value Source: NWS Daily Summary

Daily Weather History Graph

Daily Weather History Graph

Search for Another Location

Airport or City:

Trip Planner

Search our weather history database for the weather conditions in past years. The results will help you decide how hot, cold, wet, or windy it might be!

Date:

Astronomy

Nov. 12, 2013 Rise Set
Actual Time 6:32 AM CST 4:29 PM CST
Civil Twilight 6:02 AM CST 4:58 PM CST
Nautical Twilight 5:29 AM CST 5:32 PM CST
Astronomical Twilight 4:56 AM CST 6:04 PM CST
Moon 1:46 PM CST (11/12) 1:17 AM CST (11/12)
Length of Visible Light 10h 56m
Length of Day
9h 56m
Waxing Gibbous, 76% of the Moon is Illuminated
Nov 12
Waxing Gibbous
Nov 17
Full
Nov 25
Last Quarter
Dec 2
New
Dec 9
First Quarter

Hourly Weather History & Observations

Time (CST) Temp. Windchill Dew Point Humidity Pressure Visibility Wind Dir Wind Speed Gust Speed Precip Events Conditions
12:15 AM 27.5 °F 19.3 °F 24.8 °F 90% 30.44 in 10.0 mi ENE 8.1 mph - N/A   Overcast
12:55 AM 27.1 °F 21.8 °F 25.3 °F 93% 30.44 in 2.5 mi NNE 4.6 mph - N/A Snow Light Snow
1:15 AM 26.6 °F 21.2 °F 25.0 °F 94% 30.46 in 3.0 mi NNE 4.6 mph - N/A Snow Light Snow
1:35 AM 26.6 °F 19.1 °F 24.8 °F 93% 30.46 in 5.0 mi NNE 6.9 mph - N/A Snow Light Snow
1:55 AM 26.6 °F 19.1 °F 24.6 °F 92% 30.47 in 3.0 mi NE 6.9 mph - N/A Snow Light Snow
2:15 AM 26.2 °F 17.8 °F 24.3 °F 92% 30.48 in 4.0 mi NE 8.1 mph - N/A Snow Light Snow
2:35 AM 25.5 °F 16.2 °F 23.7 °F 93% 30.48 in 0.8 mi NE 9.2 mph - N/A Snow Snow
2:55 AM 25.2 °F 19.5 °F 23.5 °F 94% 30.49 in 0.5 mi NE 4.6 mph - N/A Snow Snow
3:15 AM 24.8 °F 17.9 °F 23.7 °F 96% 30.49 in 1.0 mi NNE 5.8 mph - 0.01 in Snow Light Snow
3:35 AM 24.8 °F 20.5 °F 23.5 °F 95% 30.50 in 1.0 mi NNE 3.5 mph - 0.01 in Snow Snow
3:55 AM 24.8 °F 20.5 °F 23.7 °F 96% 30.51 in 1.5 mi NNE 3.5 mph - 0.02 in Snow Light Snow
4:15 AM 24.8 °F 17.9 °F 23.7 °F 96% 30.51 in 0.8 mi ENE 5.8 mph - N/A Snow Snow
4:35 AM 24.8 °F 20.5 °F 23.5 °F 95% 30.52 in 1.0 mi NE 3.5 mph - N/A Snow Light Snow
4:55 AM 24.6 °F - 23.5 °F 96% 30.53 in 3.0 mi Calm Calm - 0.02 in Snow Light Snow
5:15 AM 24.6 °F - 23.5 °F 96% 30.54 in 2.0 mi Calm Calm - N/A Snow Light Snow
5:35 AM 24.8 °F - 23.9 °F 96% 30.55 in 0.5 mi Calm Calm - N/A Snow Heavy Snow
5:55 AM 25.2 °F 20.9 °F 24.3 °F 96% 30.56 in 1.0 mi North 3.5 mph - 0.02 in Snow Snow
6:15 AM 25.3 °F 21.1 °F 24.4 °F 96% 30.57 in 1.2 mi NNE 3.5 mph - 0.01 in Snow Light Snow
6:35 AM 25.5 °F - 24.8 °F 97% 30.58 in 0.2 mi Calm Calm - 0.01 in Snow Heavy Snow
6:55 AM 25.7 °F 21.5 °F 24.8 °F 96% 30.58 in 0.5 mi NE 3.5 mph - 0.03 in Snow Light Snow
7:15 AM 25.7 °F - 24.8 °F 96% 30.59 in 1.8 mi Calm Calm - 0.02 in Snow Light Snow
7:35 AM 26.1 °F - 24.6 °F 94% 30.60 in 3.0 mi Calm Calm - 0.02 in Snow Light Snow
7:55 AM 26.2 °F 22.1 °F 24.4 °F 93% 30.61 in 1.5 mi NNE 3.5 mph - 0.04 in Snow Light Snow
8:15 AM 26.8 °F 22.8 °F 24.8 °F 92% 30.61 in 7.0 mi NE 3.5 mph - N/A Snow Light Snow
8:35 AM 27.1 °F - 24.6 °F 90% 30.62 in 4.0 mi Calm Calm - 0.01 in Snow Light Snow
8:55 AM 27.3 °F 23.4 °F 24.8 °F 90% 30.62 in 1.2 mi ENE 3.5 mph - 0.01 in Snow Light Snow
9:15 AM 28.0 °F - 25.2 °F 89% 30.63 in 2.5 mi Calm Calm - N/A Snow Light Snow
9:35 AM 27.9 °F - 24.8 °F 88% 30.64 in 1.8 mi Calm Calm - 0.01 in Snow Light Snow
9:55 AM 27.9 °F - 25.3 °F 90% 30.64 in 1.8 mi Calm Calm - 0.01 in Snow Light Snow
10:15 AM 27.5 °F - 25.7 °F 93% 30.64 in 1.0 mi Calm Calm - N/A Snow Light Snow
10:35 AM 27.9 °F - 25.9 °F 92% 30.64 in 1.2 mi Calm Calm - 0.01 in Snow Light Snow
10:55 AM 28.0 °F - 25.7 °F 91% 30.64 in 2.5 mi Calm Calm - 0.02 in Snow Light Snow
11:15 AM 28.4 °F - 25.7 °F 90% 30.63 in 7.0 mi Calm Calm - N/A   Overcast
11:35 AM 29.3 °F - 25.7 °F 86% 30.62 in 10.0 mi Calm Calm - N/A   Overcast
11:55 AM 28.8 °F - 25.5 °F 88% 30.62 in 4.0 mi Calm Calm - N/A Snow Light Snow
12:15 PM 28.4 °F 24.6 °F 26.1 °F 91% 30.62 in 2.5 mi SSW 3.5 mph - N/A Snow Light Snow
12:35 PM 28.9 °F 23.9 °F 26.8 °F 92% 30.62 in 7.0 mi SW 4.6 mph - 0.01 in Snow Light Snow
12:55 PM 30.7 °F 21.4 °F 26.2 °F 83% 30.61 in 10.0 mi NNW 11.5 mph 17.3 mph 0.01 in   Overcast
1:15 PM 30.6 °F 21.8 °F 24.3 °F 77% 30.62 in 10.0 mi NW 10.4 mph 17.3 mph N/A   Overcast
1:35 PM 30.9 °F 20.2 °F 23.0 °F 72% 30.62 in 10.0 mi NW 15.0 mph 20.7 mph N/A   Mostly Cloudy
1:55 PM 30.2 °F 19.3 °F 21.6 °F 70% 30.62 in 10.0 mi NW 15.0 mph 19.6 mph N/A   Mostly Cloudy
2:15 PM 30.2 °F 20.2 °F 20.3 °F 67% 30.62 in 10.0 mi NW 12.7 mph - N/A   Mostly Cloudy
2:35 PM 28.9 °F 21.1 °F 19.2 °F 67% 30.63 in 10.0 mi NW 8.1 mph - N/A   Scattered Clouds
2:55 PM 28.6 °F 19.3 °F 16.3 °F 60% 30.62 in 10.0 mi NW 10.4 mph - N/A   Clear
3:15 PM 28.8 °F 21.7 °F 16.9 °F 61% 30.63 in 10.0 mi NW 6.9 mph - N/A   Clear
3:35 PM 28.4 °F 21.2 °F 15.3 °F 58% 30.62 in 10.0 mi NW 6.9 mph - N/A   Clear
3:55 PM 27.7 °F 23.8 °F 14.4 °F 57% 30.61 in 10.0 mi WNW 3.5 mph - N/A   Clear
4:15 PM 26.6 °F 21.2 °F 14.5 °F 60% 30.61 in 10.0 mi West 4.6 mph - N/A   Scattered Clouds
4:35 PM 24.4 °F 20.1 °F 14.5 °F 66% 30.61 in 10.0 mi West 3.5 mph - N/A   Scattered Clouds
4:55 PM 17.8 °F 12.5 °F 11.7 °F 77% 30.60 in 10.0 mi West 3.5 mph - N/A   Scattered Clouds
5:15 PM 18.0 °F 12.7 °F 14.4 °F 86% 30.60 in 10.0 mi WSW 3.5 mph - N/A   Mostly Cloudy
5:35 PM 14.0 °F 6.5 °F 11.3 °F 89% 30.60 in 10.0 mi SW 4.6 mph - N/A   Overcast
5:55 PM 15.8 °F 10.2 °F 13.5 °F 90% 30.61 in 10.0 mi WSW 3.5 mph - N/A   Overcast
6:15 PM 12.6 °F 3.4 °F 9.9 °F 89% 30.61 in 10.0 mi WSW 5.8 mph - N/A   Overcast
6:35 PM 17.1 °F 8.7 °F 13.6 °F 86% 30.60 in 10.0 mi WSW 5.8 mph - N/A   Mostly Cloudy
6:55 PM 18.9 °F 12.1 °F 12.2 °F 75% 30.60 in 10.0 mi WSW 4.6 mph - N/A   Overcast
7:15 PM 16.5 °F 9.4 °F 10.0 °F 76% 30.60 in 10.0 mi WSW 4.6 mph - N/A   Overcast
7:35 PM 19.6 °F 11.7 °F 12.6 °F 74% 30.60 in 10.0 mi WSW 5.8 mph - N/A   Overcast
7:55 PM 19.4 °F 10.4 °F 11.8 °F 72% 30.60 in 10.0 mi WSW 6.9 mph - N/A   Overcast
8:15 PM 20.8 °F 13.2 °F 12.9 °F 71% 30.60 in 10.0 mi WSW 5.8 mph - N/A   Overcast
8:35 PM 20.7 °F 11.9 °F 12.9 °F 72% 30.60 in 10.0 mi WSW 6.9 mph - N/A   Mostly Cloudy
8:55 PM 19.9 °F 12.1 °F 12.6 °F 73% 30.59 in 10.0 mi WSW 5.8 mph - N/A   Scattered Clouds
9:15 PM 18.7 °F 8.6 °F 12.6 °F 77% 30.59 in 10.0 mi WSW 8.1 mph - N/A   Scattered Clouds
9:35 PM 21.0 °F 11.4 °F 14.0 °F 74% 30.59 in 10.0 mi WSW 8.1 mph - N/A   Scattered Clouds
9:55 PM 20.8 °F 10.4 °F 13.5 °F 73% 30.59 in 10.0 mi WSW 9.2 mph - N/A   Scattered Clouds
10:15 PM 20.7 °F 11.0 °F 13.3 °F 73% 30.59 in 10.0 mi WSW 8.1 mph - N/A   Clear
10:35 PM 20.8 °F 11.2 °F 13.5 °F 73% 30.59 in 10.0 mi WSW 8.1 mph - N/A   Clear
10:55 PM 20.1 °F 9.5 °F 13.6 °F 76% 30.59 in 10.0 mi WSW 9.2 mph - N/A   Clear
11:15 PM 21.2 °F 11.7 °F 14.4 °F 75% 30.59 in 10.0 mi WSW 8.1 mph - N/A   Clear
11:35 PM 20.3 °F 11.5 °F 13.8 °F 76% 30.59 in 10.0 mi WSW 6.9 mph - N/A   Clear
11:55 PM 18.9 °F 8.8 °F 13.6 °F 80% 30.58 in 10.0 mi WSW 8.1 mph - N/A   Clear